Das Wetter in  D-61279 Heinzenberg / Taunus





Wetter Minimum- & Maximum-Werte im August 2013

Standort: Heinzenberg / Taunus - Höhe 297 m         8 24' 1" Ost 50 21' 51" Nord
(   3-stündige Aktualisierung    letzte Aktualisierung um 19:04 am 31.08.2013  )


Messgrösse

Minimum

Maximum

Durchschnitt

Temperatur West /
Luftfeuchte West
Anklicken für Monats-Diagramm

7,2 C

06:40
14.08.2013

29 %

17:24
02.08.2013

37,0 C

17:59
02.08.2013

91 %

01:47
26.08.2013

Temp

18,2 C

Feuchte

66 %

Temperatur Ost /
Luftfeuchte Ost
Anklicken für Monats-Diagramm

7,8 C

06:55
14.08.2013

--

--
--

36,1 C

16:39
02.08.2013

--

--
--

18,2 C

--

Luftdruck Anklicken für Monats-Diagramm

1008,7 hPa

15:49
07.08.2013

1029,3 hPa

02:27
21.08.2013

1017,9 hPa

Taupunkt

4,3 C

06:40
14.08.2013

18,7 C

15:09
07.08.2013

11,3 C

Windchill
( gefühlte Temperatur )

7,2 C

06:40
14.08.2013

37,0 C

17:59
02.08.2013

17,4 C

Windgeschwindigkeit /
Windrichtung
Anklicken für Monats-Diagramm

---

46,8 km/h / NW

16:28
06.08.2013

6,4 km/h
W-SW

Helligkeit /
Sonnenschein
Anklicken für Monats-Diagramm
Anklicken für Monats-Diagramm

Sonnenschein:

190:44 Stunden

Max: 13:25 Std am
01.08.2013

100 klux

13:20
19.08.2013

31 klux

Solarstrahlung Anklicken für Monats-Diagramm

---

682 W/m

13:20
19.08.2013

230 W/m

Regenmenge
    August 2013
Anklicken für Monats-Diagramm

Insgesamt 39,2 l/m

in 29:45 Stunden
an 12 Tagen

10,8 l/m

17:56
25.08.2013

Gesamtmenge

39,2 l/m

Regen-Tage
    August 2013
Anklicken für Monats-Diagramm

>   0 mm/Tag

>   2 mm/Tag

>   5 mm/Tag

> 10 mm/Tag

> 20 mm/Tag

12 Tage     
6 Tage     
3 Tage     
  1 Tag     
0 Tage     

Eisige Tage August 2013 / 2012

Tmin ≤ -10C     

0 Tage

/

0 Tage

Eistage August 2013 / 2012

Tmax <     0C     

0 Tage

/

0 Tage

Frosttage August 2013 / 2012

Tmin ≤     0C     

0 Tage

/

0 Tage

Kalte Tage August 2013 / 2012

Tmax <   10C     

0 Tage

/

0 Tage

Warme Tage August 2013 / 2012

Tmax ≥   20C     

28 Tage

/

28 Tage

Sommertage August 2013 / 2012

Tmax ≥   25C     

18 Tage

/

19 Tage

Heisse Tage August 2013 / 2012

Tmax ≥   30C     

4 Tage

/

4 Tage


Monatsdiagramm August 2013

Die Kurven zeigen den Durchschnittswert des jeweiligen Tages an


Wetter-Monatsübersicht August 2013
Datum
  Temperatur
   Luftdruck
   Wind
  Regen
   Luftfeuchte
   Helligkeit

Sonnen-
schein


Temp.

Min.
Temp.

Max.
Temp.


Luftdruck

Min.
Luftdruck

Max.
Luftdruck

-Geschw.
Haupt-Richtg.

Max.
Wind

Menge /
Dauer


Feuchte

Min.
Feuchte

Max.
Feuchte


Helligkeit

Max.
Helligkeit

1.
August
23,0 C13,4 C
06:28
34,1 C
18:13
1016,4 hPa1012,1 hPa
19:28
1019,5 hPa
05:48
6,0 km/h
SO
26,5 km/h
14:38  
---
61 %34 %
18:13
85 %
07:48
43,5 klux75,8 klux
13:48
13:25 Std 
2.
August
25,5 C14,8 C
06:49
37,0 C
17:59
1013,0 hPa1010,1 hPa
20:04
1015,2 hPa
07:14
7,4 km/h
W-SW
28,4 km/h
13:54  
---
54 %29 %
17:24
79 %
06:39
41,9 klux75,3 klux
13:49
12:10 Std 
3.
August
23,8 C20,0 C
03:34
28,3 C
17:44
1016,7 hPa1011,9 hPa
18:34
1020,6 hPa
23:35
11,7 km/h
W-NW
33,7 km/h
12:09  
---
15 Minuten
58 %41 %
17:29
72 %
08:49
34,4 klux94,5 klux
14:59
5:25 Std 
4.
August
22,5 C16,5 C
06:20
30,2 C
18:05
1020,4 hPa1018,6 hPa
18:05
1022,0 hPa
09:20
5,8 km/h
NW
32,1 km/h
15:35  
---
56 %34 %
17:50
78 %
07:05
40,3 klux80,7 klux
14:35
10:10 Std 
5.
August
22,8 C12,2 C
06:46
33,0 C
17:41
1016,5 hPa1011,2 hPa
19:11
1021,4 hPa
01:36
6,7 km/h
SO
26,8 km/h
13:26  
---
55 %35 %
17:46
76 %
07:26
42,0 klux82,8 klux
14:36
11:29 Std 
6.
August
21,1 C16,3 C
23:49
29,1 C
14:43
1014,6 hPa1012,5 hPa
01:12
1017,0 hPa
16:58
7,5 km/h
NW
46,8 km/h
16:28  
4,3 l/m
1:40 Stunden
67 %38 %
13:13
85 %
23:54
32,7 klux88,3 klux
14:58
7:15 Std 
7.
August
19,3 C14,7 C
04:29
26,3 C
15:49
1011,4 hPa1008,7 hPa
15:49
1015,1 hPa
00:04
7,4 km/h
SO
27,5 km/h
15:44  
4,0 l/m
3:00 Stunden
78 %58 %
15:49
89 %
07:38
23,4 klux96,3 klux
12:09
1:55 Std 
8.
August
17,4 C15,4 C
07:40
19,6 C
14:50
1016,4 hPa1011,7 hPa
00:00
1021,3 hPa
23:51
9,4 km/h
NW
21,6 km/h
16:25  
0,3 l/m
35 Minuten
77 %66 %
15:05
86 %
05:40
19,1 klux71,3 klux
14:30
40 Min 
9.
August
17,3 C10,7 C
06:41
24,7 C
17:31
1020,6 hPa1018,2 hPa
17:31
1022,0 hPa
06:41
4,8 km/h
NW
22,5 km/h
17:16  
---
69 %39 %
17:36
87 %
07:41
31,6 klux84,7 klux
14:31
4:40 Std 
10.
August
17,6 C11,4 C
05:42
25,5 C
17:17
1019,7 hPa1017,1 hPa
17:17
1021,4 hPa
23:57
11,6 km/h
NW
35,4 km/h
14:22  
---
65 %34 %
16:02
85 %
07:57
39,9 klux92,9 klux
13:32
8:15 Std 
11.
August
16,9 C9,2 C
07:03
25,2 C
17:23
1019,6 hPa1016,2 hPa
18:43
1022,1 hPa
07:08
7,6 km/h
W-SW
30,1 km/h
11:53  
---
57 %35 %
17:23
78 %
07:03
42,8 klux92,9 klux
12:53
11:25 Std 
12.
August
15,2 C10,0 C
06:44
23,4 C
15:29
1016,4 hPa1013,2 hPa
15:34
1018,9 hPa
04:39
5,8 km/h
W-SW
34,8 km/h
16:09  
8,2 l/m
3:40 Stunden
70 %48 %
15:39
85 %
23:24
20,9 klux92,9 klux
15:04
3:10 Std 
13.
August
15,0 C11,2 C
01:44
20,8 C
17:25
1018,6 hPa1016,6 hPa
04:45
1022,8 hPa
23:50
10,1 km/h
W-NW
31,7 km/h
14:39  
---
15 Minuten
72 %43 %
17:25
89 %
08:24
32,6 klux96,0 klux
14:20
5:21 Std 
14.
August
14,5 C7,2 C
06:40
22,6 C
19:15
1023,3 hPa1021,6 hPa
19:15
1024,8 hPa
23:06
4,7 km/h
NW
22,8 km/h
12:20  
---
66 %46 %
15:55
85 %
08:35
32,0 klux89,0 klux
12:15
7:15 Std 
15.
August
16,8 C8,1 C
06:26
26,0 C
17:36
1022,5 hPa1019,3 hPa
19:21
1024,9 hPa
09:11
5,8 km/h
W-SW
27,5 km/h
12:46  
---
59 %36 %
17:31
82 %
07:56
38,8 klux84,5 klux
13:11
8:25 Std 
16.
August
19,6 C9,4 C
07:07
29,8 C
17:07
1018,3 hPa1014,6 hPa
17:07
1022,1 hPa
07:32
6,3 km/h
W-SW
26,8 km/h
16:22  
---
53 %32 %
13:42
76 %
06:42
41,5 klux93,3 klux
15:07
10:35 Std 
17.
August
20,2 C13,1 C
03:58
28,4 C
17:28
1015,2 hPa1012,7 hPa
17:43
1017,4 hPa
08:18
7,3 km/h
W
29,6 km/h
17:28  
---
59 %39 %
17:28
76 %
08:38
32,1 klux81,8 klux
15:03
5:40 Std 
18.
August
19,5 C15,9 C
02:24
24,8 C
18:09
1014,2 hPa1013,0 hPa
18:09
1015,1 hPa
02:04
10,3 km/h
W-SW
32,3 km/h
12:19  
0,6 l/m
2:15 Stunden
68 %56 %
17:54
80 %
13:09
20,5 klux80,1 klux
15:44
1:45 Std 
19.
August
17,9 C14,0 C
23:16
21,2 C
14:10
1016,3 hPa1012,9 hPa
04:40
1024,7 hPa
23:46
12,7 km/h
W-NW
46,6 km/h
16:25  
6,4 l/m
3:45 Stunden
72 %54 %
19:15
87 %
07:15
35,3 klux99,7 klux
13:20
7:15 Std 
20.
August
15,8 C9,9 C
05:46
23,5 C
17:46
1027,4 hPa1024,7 hPa
00:01
1029,0 hPa
08:46
6,1 km/h
NW
22,1 km/h
15:36  
---
67 %43 %
17:36
86 %
08:06
35 klux91 klux
12:36
7:45 Std 
21.
August
16,3 C7,6 C
06:52
25,9 C
18:02
1025,5 hPa1021,3 hPa
19:17
1029,3 hPa
02:27
2,9 km/h
W-NW
14,3 km/h
13:02  
---
64 %43 %
17:27
83 %
08:32
37,1 klux83,4 klux
14:07
9:04 Std 
22.
August
18,0 C9,2 C
07:18
27,0 C
16:03
1020,0 hPa1017,0 hPa
17:33
1023,0 hPa
03:38
3,7 km/h
SO
18,1 km/h
16:48  
---
61 %39 %
15:48
82 %
08:08
36,6 klux78,4 klux
13:28
7:45 Std 
23.
August
18,8 C13,0 C
07:09
26,2 C
17:29
1017,2 hPa1015,0 hPa
17:29
1018,6 hPa
07:09
6,3 km/h
SO
27,6 km/h
15:29  
---
61 %41 %
17:29
79 %
07:59
31,3 klux77,3 klux
14:49
6:00 Std 
24.
August
17,0 C11,4 C
06:45
24,8 C
13:05
1013,1 hPa1010,1 hPa
15:50
1016,5 hPa
03:35
6,1 km/h
SO
33,0 km/h
16:40  
2,4 l/m
2:40 Stunden
71 %49 %
13:05
84 %
21:45
23,3 klux78,4 klux
12:55
2:15 Std 
25.
August
15,0 C13,2 C
03:56
17,0 C
17:21
1011,7 hPa1010,2 hPa
06:21
1013,2 hPa
23:47
0,9 km/h
NW
7,4 km/h
15:01  
10,8 l/m
7:10 Stunden
88 %84 %
00:01
90 %
22:57
9,2 klux24,0 klux
12:46
--- 
26.
August
15,2 C13,4 C
09:57
18,0 C
18:02
1014,2 hPa1012,2 hPa
03:27
1016,3 hPa
23:57
5,4 km/h
NO
24,8 km/h
11:17  
1,5 l/m
3:30 Stunden
82 %71 %
17:32
91 %
01:47
13,9 klux80,9 klux
11:12
10 Min 
27.
August
16,3 C12,4 C
23:58
22,6 C
17:38
1014,9 hPa1013,3 hPa
17:38
1016,6 hPa
23:58
1,8 km/h
SO
13,5 km/h
16:48  
---
73 %49 %
17:33
86 %
04:37
20,7 klux72,0 klux
16:13
1:30 Std 
28.
August
15,9 C9,1 C
05:48
25,0 C
18:03
1018,5 hPa1016,6 hPa
00:03
1021,7 hPa
23:55
4,2 km/h
NO
20,1 km/h
13:23  
---
68 %43 %
18:08
87 %
08:03
33,5 klux87,0 klux
13:38
5:25 Std 
29.
August
16,7 C8,5 C
07:15
25,2 C
17:20
1021,8 hPa1020,2 hPa
17:20
1023,9 hPa
09:20
2,3 km/h
W-SW
13,7 km/h
16:15  
---
65 %42 %
16:45
85 %
09:00
34,9 klux78,0 klux
12:45
7:44 Std 
30.
August
17,2 C9,1 C
07:11
25,7 C
15:36
1020,3 hPa1017,4 hPa
18:51
1022,8 hPa
01:46
4,1 km/h
W-SW
23,1 km/h
14:01  
---
64 %42 %
14:36
83 %
08:41
33,2 klux78,4 klux
12:51
6:25 Std 
31.
August
15,8 C10,8 C
07:06
20,2 C
12:46
1021,0 hPa1019,8 hPa
12:46
1023,5 hPa
23:47
5,7 km/h
W-NW
35,9 km/h
16:56  
0,8 l/m
1:00 Stunden
76 %61 %
12:37
85 %
22:22
18,4 klux71,2 klux
12:06
26 Min 



August
2013

Temperatur

  

Luftdruck

  

Wind

  

Regen

  

Luftfeuchte

  

Helligkeit

Sonnen-
schein

Min

Max

Min

Max

Max

Max

Min

Max

Max

Max

18,2 C

7,2 C

06:40 Uhr
14.08.2013

37,0 C

17:59 Uhr
02.08.2013

1017,9 hPa

1008,7 hPa

15:49 Uhr
07.08.2013

1029,3 hPa

02:27 Uhr
21.08.2013

6,4 km/h

W-SW

46,8 km/h

16:28 Uhr
06.08.2013

10,8 l/m

7:10 Stunden
25.08.2013

66 %

29 %

17:24 Uhr
02.08.2013

91 %

01:47 Uhr
26.08.2013

31,4 klux

99,7 klux

13:20 Uhr
19.08.2013

13:25 Std

am
01.08.2013

Gesamt

Gesamt

39,2 l/m

12 Tage
29:45 h

190:44 Std


Wetter-Diagramme August 2013     Heinzenberg / Taunus   
TemperaturLuftfeuchte
SolarstrahlungLuftdruck
HelligkeitSonnenschein
RegenmengeRegendauer
Wind-GeschwindigkeitWind-Richtung